{"data":{"norad_id":67804,"epoch":"2026-05-25T01:51:54.722880Z","epoch_age_seconds":78384,"freshness":"FRESH","line1":"1 67804U 26032H   26145.07771670  .00008551  00000+0  26687-3 0  9991","line2":"2 67804  97.2863 333.1149 0001398  98.5268 261.6133 15.33448285 16669","mean_motion":15.33448285,"eccentricity":0.0001398,"inclination_deg":97.2863,"raan_deg":333.1149,"arg_perigee_deg":98.5268,"mean_anomaly_deg":261.6133,"bstar":0.00026687,"rev_number":1666,"period_min":93.90600348808,"perigee_km":464.57665552476,"apogee_km":466.49014576878,"semimajor_km":6843.6704006468,"source":"CELESTRAK","updated_at":"2026-05-25T13:38:21.693307Z"}}